e   1.0004700      Incl.  160.58305     -0.23917921     -0.46184433

From 4266 observations 2002 Oct. 12-2005 July 3, mean residual 0".63.

   Nongravitational parameters A1 = +1.20 +/- 0.01, A2 = +0.1050 +/- 0.0040,

   A3 = -0.2132 +/- 0.0035.

   (1/a)org.= +0.000011, (1/a)fut.= -0.000664 (+/-0.000001), Q= 8.

See residuals on http://www.oaa.gr.jp/~oaacs/nk/nk1264.htm



NAKANO

         **** Don't distribute anyone except personal use only ****

                (C) Copyright 2005 OAA/ComputingSection

write mail from CFAD0::NAKANO on 2005-11-03 23:34:28(JST).

 

    C/2002 T7 (LINEAR)                                                    

Epoch 2004 Apr. 25.0 TT = JDT 2453120.5  

T 2004 Apr. 23.06057 TT                                 Nakano

q   0.6145945            (2000.0)            P               Q

z  -0.0008032      Peri.  157.73318     +0.43444628     -0.83757630

 +/-0.0000021      Node    94.85731     -0.86835932     -0.29183422

e   1.0004936      Incl.  160.58321     -0.23918304     -0.46184275

From 3820 observations 2002 Oct. 12-2004 Dec. 19, mean residual 0".55.

   Nongravitational parameters A1 = +1.00 +/- 0.02, A2 = +0.3105 +/- 0.0078,

   A3 = -0.18 +/- 0.00.

   (1/a)org.= +0.000025, (1/a)fut.= -0.000718 (+/-0.000002), Q= 8.





NAKANO

         **** Don't distribute anyone except personal use only ****

                (C) Copyright 2005 OAA/ComputingSection

write mail from CFAD0::NAKANO on 2005-01-04 01:58:03(JST).



    C/2002 T7 (LINEAR)                                                    

Epoch 2004 Apr. 25.0 TT = JDT 2453120.5  

T 2004 Apr. 23.06103 TT                                 Nakano

q   0.6145998            (2000.0)            P               Q

z  -0.0008822      Peri.  157.73406     +0.43443697     -0.83758151

 +/-0.0000017      Node    94.85754     -0.86836212     -0.29182417

e   1.0005422      Incl.  160.58326     -0.23918977     -0.46183965

From 3765 observations 2002 Oct. 12-2004 Aug. 3, mean residual 0".50.

   Nongravitational parameters A1 = +0.18 +/- 0.02, A2 = +0.3777 +/- 0.0061,

   A3 = -0.17 +/- 0.00.

   (1/a)org.= +0.000018, (1/a)fut.= -0.000747 (+/-0.000002), Q= 8.



NAKANO

         **** Don't distribute anyone except personal use only ****

                (C) Copyright 2004 OAA/ComputingSection

write mail from CFAD0::NAKANO on 2004-10-04 01:08:15(JST).

 

    C/2002 T7 (LINEAR)                                                    

Epoch 2004 Apr. 25.0 TT = JDT 2453120.5  

T 2004 Apr. 23.06107 TT                                 Nakano

q   0.6145995            (2000.0)            P               Q

z  -0.0008873      Peri.  157.73433     +0.43443553     -0.83758231

 +/-0.0000017      Node    94.85770     -0.86836237     -0.29182226

e   1.0005453      Incl.  160.58326     -0.23919148     -0.46183940

From 3723 observations 2002 Oct. 12-2004 July 2, mean residual 0".50.

   Nongravitational parameters A1 = +0.11 +/- 0.02, A2 = +0.3781 +/- 0.0061,

   A3 = -0.15 +/- 0.00.

   (1/a)org.= +0.000018, (1/a)fut.= -0.000747 (+/-0.000002), Q= 8.

See residuals in http://www.oaa.gr.jp/~oaacs/nk/nk1077.htm



NAKANO

         **** Don't distribute anyone except personal use only ****

                (C) Copyright 2004 OAA/ComputingSection

write mail from CFAD0::NAKANO on 2004-07-03 22:20:30(JST).

 





    C/2002 T7 (LINEAR)                                                    

Epoch 2004 Apr. 25.0 TT = JDT 2453120.5  

T 2004 Apr. 23.06151 TT                                 Nakano

q   0.6145993            (2000.0)            P               Q

z  -0.0009320      Peri.  157.73616     +0.43442669     -0.83758737

 +/-0.0000028      Node    94.85884     -0.86836363     -0.29181014

e   1.0005728      Incl.  160.58330     -0.23920297     -0.46183790

From 3583 observations 2002 Oct. 12-2004 May 27, mean residual 0".50.

   Nongravitational parameters A1 = -0.40 +/- 0.03, A2 = +0.4278 +/- 0.0096.

   (1/a)org.= +0.000021, (1/a)fut.= -0.000761 (+/-0.000003), Q= 7.



NAKANO

         **** Don't distribute anyone except personal use only ****

                (C) Copyright 2004 OAA/ComputingSection

write mail from CFAD0::NAKANO on 2004-06-02 06:08:27(JST).

 



◎C/2002 T7の軌道と予報位置です



  我が国では,八束の安部裕史氏により,5月25日に観測されました.氏の

観測は,近日点通過後に我が国で行なわれた初めて位置観測となります.星

の広場HAL-News No.95によると,奈良の中村昌次氏による大台ヶ原での眼視

観測が紹介されています.中村氏の観測によると,彗星は明るく大きく,コ

マは1゚ほどで,全光度は3等級とのこと.また,同時に見えていた C/2001 

Q4は,約5等級で1゚ほどの尾が見られたが, C/2002 T7に比べるととても小

さく見えたとのことです.



    C/2002 T7 (LINEAR)                                                    

Epoch 2004 Apr. 25.0 TT = JDT 2453120.5  

T 2004 Apr. 23.06149 TT                                 Nakano

q   0.6145993            (2000.0)            P               Q

z  -0.0009232      Peri.  157.73612     +0.43442661     -0.83758719

 +/-0.0000026      Node    94.85880     -0.86836378     -0.29181002

e   1.0005674      Incl.  160.58327     -0.23920258     -0.46183830

From 3571 observations 2002 Oct. 12-2004 May 25, weighting mean residual 0".49.

   Nongravitational parameters A1 = -0.35 +/- 0.03, A2 = +0.3885 +/- 0.0090.

   (1/a)org.= +0.000019, (1/a)fut.= -0.000750 (+/-0.000003), Q= 7.



20h JST R.A.(2000) Decl.    Delta   r      Mot./PA   Elong. Mag.   PA/Tail  Ast

ronomical

           h  m       。  ,                    ,     。    。    m1      。 。      T

wilight

May  25  07 42.61  -17 19.4  0.368  0.918  258.3/ 79   64.7   2.8  124/29.4   -2

.1   70.2

     26  08 00.24  -16 27.5  0.398  0.933  220.9/ 78   67.0   3.0  122/26.7   +0

.8   69.0

     27  08 15.18  -15 38.4  0.429  0.947  189.8/ 77   68.9   3.2  121/24.3   +3

.2   68.2

     28  08 27.91  -14 52.9  0.462  0.962  163.9/ 76   70.4   3.4  120/22.2   +5

.1   67.6

     29  08 38.83  -14 11.2  0.496  0.977  142.5/ 75   71.5   3.5  119/20.3   +6

.7   67.2

     30  08 48.26  -13 33.4  0.531  0.992  124.7/ 74   72.4   3.7  119/18.7   +8

.0   67.0

     31  08 56.47  -12 59.1  0.566  1.007  109.9/ 74   73.1   3.9  118/17.3   +8

.9   66.9

June  1  09 03.68  -12 28.1  0.602  1.022   97.5/ 73   73.6   4.0  118/16.0   +9

.7   67.0

      2  09 10.05  -12 00.0  0.639  1.038   87.0/ 73   73.9   4.2  118/14.9  +10

.3   67.1

      3  09 15.71  -11 34.5  0.675  1.053   78.1/ 73   74.1   4.3  118/13.9  +10

.7   67.3

      4  09 20.78  -11 11.3  0.712  1.068   70.5/ 73   74.1   4.4  117/13.0  +11

.0   67.5

      5  09 25.35  -10 50.3  0.749  1.084   64.0/ 73   74.1   4.6  117/12.2  +11

.2   67.8

      6  09 29.50  -10 31.1  0.786  1.099   58.4/ 73   74.0   4.7  117/11.4  +11

.3   68.2

      7  09 33.28  -10 13.6  0.823  1.114   53.6/ 73   73.8   4.8  118/10.8  +11

.5   68.4

      8  09 36.74  -09 57.5  0.860  1.130   49.4/ 73   73.6   4.9  118/10.2  +11

.4   68.8

      9  09 39.93  -09 42.8  0.897  1.145   45.7/ 73   73.3   5.0  118/9.61  +11

.3   69.3

     10  09 42.88  -09 29.3  0.935  1.161   42.4/ 73   72.9   5.1  118/9.10  +11

.1   69.7

     11  09 45.62  -09 16.9  0.972  1.176   39.5/ 73   72.6   5.2  118/8.63  +10

.9   70.2

     12  09 48.17  -09 05.5  1.009  1.192   37.0/ 74   72.1   5.3  118/8.20  +10

.6   70.6

     13  09 50.57  -08 55.1  1.046  1.207   34.7/ 74   71.7   5.4  118/7.80  +10

.3   71.1

     14  09 52.82  -08 45.4  1.082  1.223   32.7/ 74   71.2   5.5  118/7.43  +10

.0   71.6

     15  09 54.94  -08 36.5  1.119  1.238   30.9/ 75   70.7   5.6  119/7.09   +9

.7   72.1

     16  09 56.94  -08 28.3  1.156  1.254   29.3/ 75   70.2   5.7  119/6.77   +9

.3   72.5

     17  09 58.85  -08 20.7  1.192  1.269   27.8/ 76   69.7   5.8  119/6.47   +8

.9   73.0

     18  10 00.66  -08 13.8  1.228  1.285   26.5/ 76   69.1   5.9  119/6.19   +8

.5   73.5

     19  10 02.39  -08 07.4  1.265  1.300   25.3/ 77   68.5   6.0  119/5.92   +8

.0   74.0

     20  10 04.04  -08 01.5  1.301  1.316   24.2/ 77   67.9   6.0  119/5.68   +7

.6   74.5

     21  10 05.63  -07 56.0  1.336  1.331   23.2/ 78   67.3   6.1  120/5.44   +7

.1   74.9

     22  10 07.15  -07 51.0  1.372  1.347   22.3/ 78   66.7   6.2  120/5.22   +6

.7   75.4

     23  10 08.62  -07 46.5  1.408  1.362   21.5/ 79   66.1   6.2  120/5.02   +6

.2   75.9

     24  10 10.04  -07 42.3  1.443  1.378   20.7/ 79   65.5   6.3  120/4.82   +5

.7   76.3

     25  10 11.41  -07 38.5  1.478  1.393   20.0/ 80   64.8   6.4  120/4.64   +5

.2   76.8

NAKANO

         **** Don't distribute anyone except personal use only ****

                (C) Copyright 2004 OAA/ComputingSection

write mail from CFAD0::NAKANO on 2004-05-27 05:02:25(JST).

 

    C/2002 T7 (LINEAR)                                                    

Epoch 2004 Apr. 25.0 TT = JDT 2453120.5  

T 2004 Apr. 23.06169 TT                                 Nakano

q   0.6145949            (2000.0)            P               Q

z  -0.0008374      Peri.  157.73684     +0.43441637     -0.83759238

 +/-0.0000005      Node    94.85883     -0.86836734     -0.29179926

e   1.0005146      Incl.  160.58325     -0.23920823     -0.46183569

From 3523 observations 2002 Oct. 12-2004 Apr. 20, mean residual 0".46.

   (1/a)org.= +0.000010, (1/a)fut.= -0.000631 (+/-0.000001), Q= 8.



NAKANO

         **** Don't distribute anyone except personal use only ****

                (C) Copyright 2004 OAA/ComputingSection

write mail from CFAD0::NAKANO on 2004-04-24 06:00:27(JST).

 

    C/2002 T7 (LINEAR)                                                    

Epoch 2004 Apr. 25.0 TT = JDT 2453120.5  

T 2004 Apr. 23.06162 TT                                 Nakano

q   0.6145942            (2000.0)            P               Q

z  -0.0008373      Peri.  157.73688     +0.43441599     -0.83759261

 +/-0.0000005      Node    94.85884     -0.86836745     -0.29179886

e   1.0005146      Incl.  160.58325     -0.23920853     -0.46183551

From 3418 observations 2002 Oct. 12-2004 Feb. 25, mean residual 0".46.

   (1/a)org.= +0.000010, (1/a)fut.= -0.000631 (+/-0.000001), Q= 8.

See http://www.oaa.gr.jp/~oaacs/nk/nk1038.htm for Residuals.



NAKANO

